| time (UTC) | temp F | wind direction | speed MPH | gust MPH | rain 1hr in | rain 24hr in | rain mn in | humidity % | barometer mb |
| 20260503223052 | 72 | 26 | 1.0 | 5.0 | 0.00 | 0.00 | 0.00 | 18 | 1000.9 |
| 20260503221551 | 72 | 5 | 10.0 | 14.0 | 0.00 | 0.00 | 0.00 | 18 | 1000.7 |
| 20260503220053 | 73 | 32 | 8.0 | 19.0 | 0.00 | 0.00 | 0.00 | 18 | 1000.9 |
| 20260503214549 | 74 | 16 | 16.0 | 22.0 | 0.00 | 0.00 | 0.00 | 17 | 1000.8 |
| 20260503213055 | 74 | 355 | 12.0 | 21.0 | 0.00 | 0.00 | 0.00 | 15 | 1001.2 |
| 20260503211545 | 75 | 344 | 10.0 | 16.0 | 0.00 | 0.00 | 0.00 | 15 | 1001.3 |
| 20260503210046 | 74 | 327 | 7.0 | 11.0 | 0.00 | 0.00 | 0.00 | 15 | 1001.7 |
| 20260503204539 | 75 | 309 | 11.0 | 19.0 | 0.00 | 0.00 | 0.00 | 15 | 1002.1 |
| 20260503203036 | 74 | 302 | 10.0 | 23.0 | 0.00 | 0.00 | 0.00 | 15 | 1002.5 |
| 20260503201535 | 74 | 314 | 10.0 | 22.0 | 0.00 | 0.00 | 0.00 | 15 | 1002.7 |
| 20260503200133 | 72 | 296 | 15.0 | 24.0 | 0.00 | 0.00 | 0.00 | 15 | 1002.9 |
| 20260503194544 | 73 | 319 | 12.0 | 25.0 | 0.00 | 0.00 | 0.00 | 15 | 1003.1 |
| 20260503193047 | 73 | 300 | 17.0 | 29.0 | 0.00 | 0.00 | 0.00 | 15 | 1003.2 |
| 20260503191540 | 73 | 324 | 19.0 | 28.0 | 0.00 | 0.00 | 0.00 | 15 | 1003.7 |
| 20260503190013 | 73 | 318 | 13.0 | 29.0 | 0.00 | 0.00 | 0.00 | 15 | 1003.8 |
| 20260503184511 | 73 | 321 | 15.0 | 23.0 | 0.00 | 0.00 | 0.00 | 15 | 1004.0 |
| 20260503183009 | 74 | 300 | 12.0 | 20.0 | 0.00 | 0.00 | 0.00 | 15 | 1004.1 |
| 20260503181506 | 73 | 275 | 8.0 | 20.0 | 0.00 | 0.00 | 0.00 | 16 | 1004.5 |
| 20260503180012 | 73 | 271 | 12.0 | 24.0 | 0.00 | 0.00 | 0.00 | 15 | 1004.7 |
| 20260503174603 | 73 | 261 | 10.0 | 21.0 | 0.00 | 0.00 | 0.00 | 15 | 1004.9 |
| 20260503173103 | 74 | 294 | 11.0 | 18.0 | 0.00 | 0.00 | 0.00 | 15 | 1005.3 |
| 20260503171557 | 73 | 200 | 7.0 | 14.0 | 0.00 | 0.00 | 0.00 | 15 | 1005.5 |
| 20260503150134 | 66 | 98 | 4.0 | 7.0 | 0.00 | 0.00 | 0.00 | 28 | 1006.8 |
| 20260503140146 | 60 | 121 | 4.0 | 7.0 | 0.00 | 0.00 | 0.00 | 33 | 1007.7 |
| 20260503081545 | 55 | 312 | 2.0 | 5.0 | 0.00 | 0.00 | 0.00 | 29 | 1008.7 |
| 20260503071522 | 56 | 311 | 7.0 | 9.0 | 0.00 | 0.00 | 0.00 | 26 | 1009.6 |
| 20260503054513 | 55 | 261 | 5.0 | 10.0 | 0.00 | 0.00 | 0.00 | 26 | 1009.8 |
| 20260503053007 | 54 | 284 | 6.0 | 9.0 | 0.00 | 0.00 | 0.00 | 26 | 1010.0 |
| 20260503051507 | 54 | 270 | 3.0 | 6.0 | 0.00 | 0.00 | 0.00 | 24 | 1009.9 |
| 20260503050022 | 56 | 264 | 3.0 | 6.0 | 0.00 | 0.00 | 0.00 | 24 | 1010.1 |
| 20260503044505 | 56 | 266 | 4.0 | 7.0 | 0.00 | 0.00 | 0.00 | 22 | 1010.3 |
| 20260503043116 | 57 | 261 | 4.0 | 7.0 | 0.00 | 0.00 | 0.00 | 22 | 1010.4 |
| 20260503041508 | 58 | 252 | 4.0 | 9.0 | 0.00 | 0.00 | 0.00 | 21 | 1010.3 |
| 20260503040005 | 58 | 251 | 5.0 | 8.0 | 0.00 | 0.00 | 0.00 | 20 | 1010.3 |
| 20260503034504 | 57 | 253 | 3.0 | 6.0 | 0.00 | 0.00 | 0.00 | 19 | 1010.2 |
| 20260503033003 | 58 | 252 | 2.0 | 5.0 | 0.00 | 0.00 | 0.00 | 18 | 1010.1 |
| 20260503031503 | 60 | 243 | 4.0 | 6.0 | 0.00 | 0.00 | 0.00 | 17 | 1009.9 |
| 20260503030003 | 59 | 252 | 3.0 | 6.0 | 0.00 | 0.00 | 0.00 | 18 | 1009.9 |
| 20260503024502 | 58 | 163 | 1.0 | 3.0 | 0.00 | 0.00 | 0.00 | 19 | 1009.7 |
| 20260503023113 | 59 | 157 | 2.0 | 3.0 | 0.00 | 0.00 | 0.00 | 19 | 1009.7 |
| 20260503021604 | 61 | 148 | 1.0 | 3.0 | 0.00 | 0.00 | 0.00 | 17 | 1009.7 |
| 20260503020058 | 64 | 148 | 0.0 | 5.0 | 0.00 | 0.00 | 0.00 | 17 | 1009.6 |
| 20260503014600 | 66 | 148 | 2.0 | 4.0 | 0.00 | 0.00 | 0.00 | 16 | 1009.6 |
| 20260503013056 | 68 | 138 | 2.0 | 4.0 | 0.00 | 0.00 | 0.00 | 15 | 1009.5 |
| 20260503011603 | 69 | 130 | 1.0 | 4.0 | 0.00 | 0.00 | 0.00 | 14 | 1009.4 |
| 20260503010056 | 69 | 119 | 1.0 | 5.0 | 0.00 | 0.00 | 0.00 | 14 | 1009.4 |
| 20260503004555 | 70 | 115 | 4.0 | 7.0 | 0.00 | 0.00 | 0.00 | 13 | 1009.4 |
| 20260503003054 | 71 | 92 | 2.0 | 8.0 | 0.00 | 0.00 | 0.00 | 12 | 1009.6 |
| 20260503001600 | 70 | 119 | 1.0 | 5.0 | 0.00 | 0.00 | 0.00 | 14 | 1009.6 |
| 20260503000103 | 71 | 115 | 2.0 | 7.0 | 0.00 | 0.00 | 0.00 | 13 | 1009.8 |
| 20260502234552 | 72 | 118 | 4.0 | 9.0 | 0.00 | 0.00 | 0.00 | 14 | 1009.9 |
| 20260502233100 | 73 | 92 | 5.0 | 13.0 | 0.00 | 0.00 | 0.00 | 14 | 1009.9 |
| 20260502231557 | 73 | 187 | 2.0 | 7.0 | 0.00 | 0.00 | 0.00 | 14 | 1010.1 |
| 20260502230040 | 72 | 117 | 1.0 | 10.0 | 0.00 | 0.00 | 0.00 | 14 | 1010.2 |
| 20260502224537 | 72 | 84 | 3.0 | 13.0 | 0.00 | 0.00 | 0.00 | 13 | 1010.3 |